DW4070 Weather Reports


time (UTC)temp
F
wind
direction
speed
knots
gust
knots
rain 1hr
in
rain 24hr
in
rain mn
in
humidity
%
barometer
mb
20260509204527 56 280 0.0 0.0 0.04 0.26 0.26 93 1013.1
20260509203033 56 280 0.0 0.9 0.04 0.24 0.24 93 1013.2
20260509201526 56 280 0.0 0.9 0.05 0.23 0.23 93 1013.4
20260509200027 56 280 0.0 0.0 0.09 0.23 0.23 93 1012.5
20260509194527 56 280 0.0 0.0 0.13 0.22 0.22 92 1012.5
20260509193024 56 280 0.0 0.0 0.19 0.20 0.20 91 1013.4
20260509191526 56 281 0.0 0.0 0.16 0.17 0.17 91 1013.2
20260509190022 57 280 0.0 0.0 0.13 0.14 0.14 89 1013.4
20260509184539 57 280 0.0 3.5 0.08 0.09 0.09 87 1013.5
20260509183021 59 280 0.9 2.6 0.00 0.01 0.01 81 1013.1
20260509181520 60 280 0.0 1.7 0.00 0.01 0.01 78 1012.5
20260509180022 61 280 0.0 2.6 0.00 0.01 0.01 74 1012.5
20260509174527 63 280 0.0 4.3 0.00 0.01 0.01 68 1012.4
20260509173019 64 280 1.7 4.3 0.00 0.01 0.01 64 1012.3
20260509171517 64 280 1.7 4.3 0.00 0.01 0.01 64 1012.5
20260509170024 64 262 0.0 4.3 0.00 0.01 0.01 67 1012.6
20260509164511 63 281 0.0 2.6 0.00 0.01 0.01 68 1012.9
20260509163008 62 281 0.9 4.3 0.00 0.01 0.01 69 1013.3
20260509161504 61 286 0.0 2.6 0.00 0.01 0.01 72 1013.8
20260509160001 61 21 0.0 1.7 0.00 0.01 0.01 71 1013.7
20260509154612 60 284 0.0 2.6 0.00 0.01 0.01 72 1013.9
20260509153108 60 284 0.0 3.5 0.00 0.01 0.01 73 1013.9
20260509151607 59 286 0.0 2.6 0.00 0.01 0.01 74 1014.0
20260509150053 59 286 0.0 0.9 0.00 0.01 0.01 78 1014.0
20260509144551 58 285 0.0 1.7 0.00 0.01 0.01 77 1014.2
20260509143057 57 286 0.0 2.6 0.00 0.01 0.01 81 1014.1
20260509141547 56 286 0.0 1.7 0.00 0.01 0.01 84 1014.3
20260509140041 55 286 0.9 3.5 0.00 0.01 0.01 84 1014.1
20260509134540 54 286 0.0 3.5 0.00 0.01 0.01 87 1014.0
20260509133051 53 286 0.0 1.7 0.00 0.01 0.01 90 1014.4
20260509131533 52 286 0.0 0.9 0.01 0.01 0.01 91 1014.4
20260509130031 52 286 0.0 0.0 0.01 0.01 0.01 92 1014.4
20260509124529 51 286 0.0 0.0 0.01 0.01 0.01 93 1014.6
20260509123032 51 286 0.0 0.9 0.01 0.01 0.01 93 1014.7
20260509121530 51 323 0.0 0.0 0.00 0.00 0.00 93 1015.0
20260509120025 51 320 0.0 0.0 0.00 0.00 0.00 93 1015.1
20260509114528 50 321 0.0 0.0 0.00 0.00 0.00 93 1014.9
20260509113022 50 315 0.0 0.0 0.00 0.00 0.00 94 1015.0
20260509111520 49 317 0.0 0.0 0.00 0.00 0.00 94 1014.8
20260509110018 49 287 0.0 0.0 0.00 0.00 0.00 94 1014.9
20260509104518 49 286 0.0 0.0 0.00 0.00 0.00 94 1014.7
20260509103016 49 166 0.0 0.0 0.00 0.00 0.00 94 1014.4
20260509101526 49 166 0.0 0.0 0.00 0.00 0.00 94 1014.3
20260509100015 49 166 0.0 0.0 0.00 0.00 0.00 94 1014.4
20260509094515 48 166 0.0 0.0 0.00 0.00 0.00 94 1014.4
20260509093012 48 166 0.0 0.0 0.00 0.00 0.00 93 1014.3
20260509091511 48 166 0.0 0.0 0.00 0.00 0.00 93 1014.4
20260509090012 48 166 0.0 0.0 0.00 0.00 0.00 93 1014.5
20260509084510 48 166 0.0 0.0 0.00 0.00 0.00 93 1014.5
20260509083009 48 166 0.0 0.0 0.00 0.00 0.00 93 1014.5
20260509081518 48 166 0.0 0.0 0.00 0.00 0.00 93 1014.6
20260509080008 48 166 0.0 0.0 0.00 0.01 0.00 93 1014.6
20260509074507 48 166 0.0 0.0 0.00 0.01 0.00 93 1014.5
20260509073015 48 166 0.0 0.0 0.00 0.01 0.00 92 1014.4
20260509071505 48 166 0.0 0.0 0.00 0.01 0.00 92 1014.4
20260509070009 48 166 0.0 0.0 0.00 0.01 0.00 92 1014.4
20260509064503 47 166 0.0 0.0 0.00 0.01 0.00 92 1014.5
20260509063112 47 166 0.0 0.0 0.00 0.01 0.00 91 1014.5
20260509061618 47 166 0.0 0.0 0.00 0.01 0.00 91 1014.7
20260509060112 47 166 0.0 0.0 0.00 0.01 0.00 90 1015.0
20260509054557 47 166 0.0 0.0 0.00 0.01 0.00 90 1014.9
20260509053056 47 166 0.0 0.0 0.00 0.01 0.00 90 1015.0
20260509051559 47 166 0.0 0.0 0.00 0.01 0.00 89 1015.0
20260509050053 47 166 0.0 0.0 0.00 0.01 0.00 88 1014.9
20260509044551 47 166 0.0 0.0 0.00 0.01 0.00 87 1014.9
20260509043051 48 166 0.0 0.0 0.00 0.01 0.00 86 1015.0
20260509041546 48 166 0.0 0.0 0.00 0.01 0.00 85 1015.0
20260509040044 48 166 0.0 0.0 0.00 0.01 0.00 85 1015.2
20260509034543 49 166 0.0 0.0 0.00 0.01 0.01 84 1015.2
20260509033042 49 166 0.0 0.0 0.00 0.01 0.01 84 1015.1
20260509031542 49 166 0.0 0.0 0.00 0.01 0.01 83 1015.2
20260509030047 49 166 0.0 0.0 0.00 0.01 0.01 82 1015.1
20260509024540 49 166 0.0 0.0 0.00 0.01 0.01 82 1015.0
20260509023038 49 166 0.0 0.0 0.00 0.01 0.01 81 1014.8
20260509021538 49 166 0.0 0.0 0.00 0.01 0.01 80 1014.9
20260509020048 49 166 0.0 0.0 0.00 0.01 0.01 81 1014.6
20260509014544 49 166 0.0 0.0 0.00 0.01 0.01 79 1014.4
20260509013038 49 166 0.0 0.0 0.00 0.01 0.01 78 1014.2
20260509011533 49 166 0.0 0.0 0.00 0.01 0.01 77 1014.1
20260509010032 49 166 0.0 0.0 0.00 0.01 0.01 74 1014.1
20260509004532 51 166 0.0 0.0 0.00 0.01 0.01 73 1013.8
20260509003039 52 166 0.0 0.0 0.00 0.01 0.01 69 1013.6
20260509001531 53 166 0.0 0.0 0.00 0.01 0.01 66 1013.6
20260509000030 54 166 0.0 0.0 0.00 0.01 0.01 64 1013.4
20260508234531 56 166 0.0 0.0 0.00 0.01 0.01 59 1013.1
20260508233029 56 164 0.0 0.0 0.00 0.01 0.01 60 1013.2
20260508231530 56 167 0.0 0.9 0.00 0.01 0.01 61 1012.9
20260508230028 57 167 0.0 1.7 0.00 0.01 0.01 60 1012.9
20260508224532 57 194 0.0 1.7 0.00 0.01 0.01 60 1012.8
20260508223028 57 173 0.0 3.5 0.00 0.01 0.01 58 1012.7
20260508221527 57 157 0.0 3.5 0.00 0.01 0.01 57 1012.6
20260508220025 58 155 0.0 2.6 0.00 0.01 0.01 54 1012.6
20260508214525 58 283 0.9 3.5 0.00 0.01 0.01 54 1012.8
20260508213026 58 243 0.9 4.3 0.00 0.01 0.01 52 1013.0
20260508211522 58 81 0.0 3.5 0.00 0.01 0.01 51 1013.1
20260508210022 58 284 0.9 6.1 0.00 0.01 0.01 52 1013.1